Regional Weather Roundup
Issued by NWS

Home | Current Version | Previous Version | Graphics & Text | Print | Product List | Glossary On
Versions: 1 2 3 4 5 6 7 8 9 10 11 12 13 14 15 16 17 18 19 20 21 22 23 24 25 26 27 28 29 30 31 32 33 34 35 36 37 38 39 40 41 42 43 44 45 46 47 48 49 50
779
ASUS43 KTOP 221159
RWRKS

WEATHER ROUNDUP FOR KANSAS
NATIONAL WEATHER SERVICE GOODLAND KS
600 AM CST SUN JAN 22 2017

NOTE:  "FAIR" INDICATES FEW OR NO CLOUDS BELOW 12,000 FEET WITH NO
SIGNIFICANT WEATHER AND/OR OBSTRUCTIONS TO VISIBILITY.

KSZ001>006-013>018-027>032-041>047-221300-
NORTHWEST KANSAS

CITY           SKY/WX    TMP DP  RH WIND       PRES   REMARKS
GOODLAND       CLOUDY    25  23  92 W6        29.75R
6HR MIN TEMP:  25; 6HR MAX TEMP:  30;

HAYS           PTCLDY    35  31  85 N13       29.70R WCI  26
HILL CITY      CLEAR     32  30  92 N9        29.72R
6HR MIN TEMP:  32; 6HR MAX TEMP:  35;

RUSSELL        PTCLDY    35  33  92 N13       29.67R WCI  26
6HR MIN TEMP:  34; 6HR MAX TEMP:  42;

$$

KSZ061>065-074>080-084>089-221300-
SOUTHWEST KANSAS

CITY           SKY/WX    TMP DP  RH WIND       PRES   REMARKS
DODGE CITY     PTCLDY    33  30  88 NW13      29.70R WCI  24
6HR MIN TEMP:  33; 6HR MAX TEMP:  41; 6HR PCP:  0.01;

ELKHART          N/A     32  22  67 NW10        N/A  WCI  24
GARDEN CITY    CLEAR     32  28  85 NW14      29.72R WCI  22
6HR MIN TEMP:  32; 6HR MAX TEMP:  40; 6HR PCP: TRACE;

GREAT BEND     CLOUDY    36  34  92 N10       29.67R WCI  28
LIBERAL          N/A     34  27  75 NW15      29.73R WCI  24
$$

KSZ066>073-081>083-090>101-221300-
SOUTHEAST KANSAS

CITY           SKY/WX    TMP DP  RH WIND       PRES   REMARKS
CHANUTE        LGT RAIN  49  46  90 N13       29.48R
6HR MIN TEMP:  48; 6HR MAX TEMP:  50; 6HR PCP:  0.23;

COFFEYVILLE    RAIN      49  47  93 NE16      29.45R
6HR MIN TEMP:  48; 6HR MAX TEMP:  50; 6HR PCP:  0.29;

HUTCHINSON     CLOUDY    42  37  82 N13       29.61R
6HR MIN TEMP:  42; 6HR MAX TEMP:  45;

MEDICINE LODGE   N/A     42  39  89 N15       29.60R
NEWTON         CLOUDY    42  40  92 N15       29.60R
PARSONS        RAIN      49  46  90 N10       29.46R
6HR MIN TEMP:  48; 6HR MAX TEMP:  50; 6HR PCP:  0.33;

WICHITA INTL   CLOUDY    45  42  89 N16       29.57R
6HR MIN TEMP:  45; 6HR MAX TEMP:  48; 6HR PCP:  0.19;

WICHITA JABRA  LGT RAIN  45  43  93 N18       29.57R
6HR MIN TEMP:  44; 6HR MAX TEMP:  46;

WICHITA MCCONL DRIZZLE   45  43  93 N17       29.55R
WINFIELD       LGT RAIN  46  44  93 N14       29.53R
6HR MIN TEMP:  46; 6HR MAX TEMP:  50; 6HR PCP:  0.24;

$$

KSZ007>012-019>026-033>040-048>060-102>105-221300-
NORTHEAST KANSAS

CITY           SKY/WX    TMP DP  RH WIND       PRES   REMARKS
CONCORDIA      PTCLDY    34  32  92 N9        29.67R
6HR MIN TEMP:  33; 6HR MAX TEMP:  38;

EMPORIA        CLOUDY    45  43  93 N13       29.56R
6HR MIN TEMP:  44; 6HR MAX TEMP:  46; 6HR PCP: TRACE;

LAWRENCE       CLOUDY    45  43  93 NW8       29.58R
6HR MIN TEMP:  43; 6HR MAX TEMP:  47;

MANHATTAN      CLOUDY    41  37  86 N9        29.63R
6HR MIN TEMP:  39; 6HR MAX TEMP:  47;

OLATHE IND     LGT RAIN  45  44  97 N13       29.56R FOG
6HR MIN TEMP:  45; 6HR MAX TEMP:  47; 6HR PCP: TRACE;

OLATHE EXE     CLOUDY    45  44  97 NE9       29.56R FOG
6HR MIN TEMP:  45; 6HR MAX TEMP:  46; 6HR PCP:  0.04;

SALINA           N/A    N/A N/A N/A MISG        N/A
TOPEKA BILLARD CLOUDY    46  41  82 N7        29.60R
6HR MIN TEMP:  45; 6HR MAX TEMP:  46;

TOPEKA FORBES  CLOUDY    46  42  86 N8        29.58R
6HR MIN TEMP:  46; 6HR MAX TEMP:  47; 6HR PCP:  0.01;

$$




USA.gov is the U.S. government's official web portal to all federal, state and local government web resources and services.